Regional Weather Roundup
Issued by NWS

Home | Current Version | Previous Version | Graphics & Text | Print | Product List | Glossary On
Versions: 1 2 3 4 5 6 7 8 9 10 11 12 13 14 15 16 17 18 19 20 21 22 23 24 25 26 27 28 29 30 31 32 33 34 35 36 37 38 39 40 41 42 43 44 45 46 47 48 49 50
670
ASUS44 KJAN 201703
RWRMS

MISSISSIPPI HOURLY WEATHER ROUNDUP
NATIONAL WEATHER SERVICE JACKSON MS
1200 PM CDT WED AUG 20 2014

NOTE: "FAIR: INDICATES FEW OR NO CLOUDS BELOW 12,000 FEET WITH NO
SIGNIFICANT WEATHER AND/OR OBSTRUCTIONS TO VISIBILITY.

MSZ001>002-007>008-010>013-018>021-025>028-034>036-201800-
NORTHWEST MISSISSIPPI

CITY           SKY/WX    TMP DP  RH WIND       PRES   REMARKS
CLARKSDALE     FAIR      88  73  62 SW9       30.06S HX  96
CLEVELAND      FAIR      89  75  64 W7        30.06R HX  98
GREENWOOD      SUNNY     88  71  57 VRB5      30.07S HX  94
GREENVILLE       N/A    N/A N/A N/A MISG      30.06R
GRENADA        FAIR      86  72  62 W5        30.07S HX  92
OLIVE BRANCH   MOSUNNY   90  75  62 SW12      30.04F HX 100
OXFORD         FAIR      86  70  58 W6        30.08S HX  90
TUNICA         SUNNY     88  70  55 W10       30.05F HX  92
$$

MSZ003>006-009-014>017-022>024-029>033-037>039-201800-
NORTHEAST MISSISSIPPI

CITY           SKY/WX    TMP DP  RH WIND       PRES   REMARKS
BELMONT        FAIR      88  76  68 W8        30.06S HX  98
COLUMBUS AFB   SUNNY     91  72  53 W9        30.07R HX  97
CORINTH        FAIR      90  75  62 W6G13     30.03S HX 100
GOLDN TRIANGLE MOSUNNY   93  72  49 W8        30.07S HX 100
STARKVILLE     FAIR      90  68  48 W8G16     30.07S HX  93
TUPELO         SUNNY     92  71  50 NW8G16    30.05S HX  98
$$

MSZ040-058-201800-
CENTRAL MISSISSIPPI

CITY           SKY/WX    TMP DP  RH WIND       PRES   REMARKS
JACKSON INTL   MOSUNNY   90  71  53 SW5       30.09F HX  96
JACKSON HAWKNS SUNNY     89  69  51 VRB5      30.10S HX  93
MERIDIAN KEY   SUNNY     90  71  53 VRB6      30.09S HX  96
MERIDIAN NAS   SUNNY     89  71  55 W10       30.09S HX  95
RAYMOND        FAIR      86  82  89 W5        30.09S HX 105
VICKSBURG      MOSUNNY   87  71  58 VRB3      30.08S HX  93
$$

MSZ059>079-201800-
SOUTH MISSISSIPPI

CITY           SKY/WX    TMP DP  RH WIND       PRES   REMARKS
BROOKHAVEN     FAIR      88  70  55 SW5       30.12S HAZE    HX  92
COLUMBIA       FAIR      90  72  55 MISG      30.09S HX  96
HATTIESBURG    MOSUNNY   92  70  48 NW8       30.10S HX  97
MCCOMB         PTSUNNY   89  70  53 MISG      30.10S HX  94
NATCHEZ        SUNNY     88  73  62 SW6       30.09S HX  96
PINE BELT      SUNNY     90  70  51 CALM      30.12S HX  95
$$

MSZ080>082-201800-
COASTAL MISSISSIPPI

CITY           SKY/WX    TMP DP  RH WIND       PRES   REMARKS
BAY ST LOUIS   MOSUNNY  N/A N/A N/A S7        30.09S
BILOXI         MOSUNNY   91  75  60 S8        30.09F HX 102
PASCAGOULA     MOSUNNY   91  73  55 VRB5      30.09F HX  99
GULFPORT       MOSUNNY   89  74  60 VRB3      30.09S HX  98
$$



USA.gov is the U.S. government's official web portal to all federal, state and local government web resources and services.